QPF
0.00 0.00 0.00 0.00 0.00 0.00 0.00 0.00 0.00 0.00 0.00 0.00 0.00 0.00 0.01 0.02 0.01 0.01 0.01 0.01 0.00 0.00 0.00 0.01 0.02 0.01 0.02 0.02 0.01 0.07 0.07 0.04 0.02 0.00 0.00 0.00 0.00 0.00 0.00 0.00 0.00 0.00 0.00 0.00
0.00 0.00 0.00 0.00 0.00 0.00 0.01 0.01 0.00 0.00 0.00 0.00 0.00 0.00 0.01 0.01 0.01 0.01 0.00 0.00 0.01 0.00 0.00 0.00 0.00 0.00 0.02 0.03 0.02 0.05 0.07 0.05 0.01 0.00 0.00 0.00 0.00 0.00 0.00 0.00 0.00 0.00 0.00 0.00
0.00 0.00 0.01 0.01 0.01 0.01 0.00 0.01 0.02 0.01 0.00 0.00 0.00 0.00 0.00 0.00 0.00 0.00 0.00 0.01 0.01 0.01 0.00 0.00 0.00 0.00 0.00 0.00 0.02 0.04 0.05 0.03 0.01 0.00 0.00 0.00 0.00 0.00 0.00 0.00 0.00 0.00 0.00 0.00
0.02 0.00 0.01 0.02 0.01 0.01 0.01 0.02 0.04 0.03 0.02 0.01 0.00 0.00 0.00 0.00 0.00 0.00 0.00 0.00 0.00 0.00 0.00 0.00 0.00 0.00 0.00 0.00 0.01 0.03 0.02 0.00 0.00 0.00 0.00 0.00 0.00 0.00 0.00 0.00 0.00 0.00 0.00 0.00
0.02 0.02 0.02 0.05 0.01 0.01 0.00 0.03 0.05 0.05 0.04 0.01 0.00 0.00 0.00 0.00 0.00 0.00 0.00 0.00 0.00 0.00 0.00 0.00 0.00 0.00 0.00 0.00 0.00 0.01 0.00 0.00 0.00 0.00 0.00 0.00 0.00 0.00 0.00 0.00 0.00 0.00 0.00 0.00
0.04 0.04 0.04 0.03 0.03 0.03 0.03 0.06 0.08 0.04 0.02 0.00 0.00 0.00 0.00 0.00 0.00 0.00 0.00 0.00 0.00 0.00 0.00 0.00 0.00 0.00 0.00 0.00 0.00 0.00 0.00 0.00 0.00 0.00 0.00 0.00 0.00 0.00 0.00 0.00 0.00 0.00 0.00 0.00
0.03 0.05 0.05 0.04 0.02 0.04 0.07 0.08 0.07 0.04 0.01 0.00 0.00 0.00 0.00 0.00 0.00 0.00 0.00 0.00 0.00 0.00 0.00 0.00 0.00 0.00 0.00 0.00 0.00 0.00 0.00 0.00 0.00 0.00 0.00 0.00 0.00 0.00 0.00 0.00 0.00 0.00 0.00 0.00
0.01 0.01 0.02 0.02 0.02 0.01 0.03 0.05 0.05 0.01 0.00 0.00 0.00 0.00 0.00 0.00 0.00 0.00 0.00 0.00 0.00 0.00 0.00 0.00 0.00 0.00 0.00 0.00 0.00 0.00 0.00 0.00 0.00 0.00 0.00 0.00 0.00 0.00 0.00 0.00 0.00 0.00 0.00 0.00
0.08 0.07 0.00 0.01 0.01 0.01 0.01 0.02 0.01 0.00 0.00 0.00 0.00 0.00 0.00 0.00 0.00 0.00 0.00 0.00 0.00 0.00 0.00 0.00 0.00 0.00 0.00 0.00 0.00 0.00 0.00 0.00 0.00 0.00 0.00 0.00 0.00 0.00 0.00 0.00 0.00 0.00 0.00 0.00
0.05 0.02 0.00 0.04 0.00 0.00 0.01 0.01 0.01 0.00 0.00 0.00 0.00 0.00 0.00 0.00 0.00 0.00 0.00 0.00 0.00 0.00 0.00 0.00 0.00 0.00 0.00 0.00 0.00 0.00 0.00 0.00 0.00 0.00 0.00 0.00 0.00 0.00 0.00 0.00 0.00 0.00 0.00 0.00
0.00 0.00 0.00 0.03 0.01 0.00 0.00 0.00 0.00 0.01 0.00 0.00 0.00 0.00 0.00 0.00 0.00 0.00 0.00 0.00 0.00 0.00 0.00 0.00 0.00 0.00 0.00 0.00 0.00 0.00 0.00 0.00 0.00 0.00 0.00 0.00 0.00 0.00 0.00 0.00 0.00 0.00 0.00 0.00
0.00 0.00 0.01 0.05 0.00 0.00 0.00 0.00 0.00 0.00 0.01 0.00 0.00 0.00 0.00 0.00 0.00 0.00 0.00 0.00 0.00 0.00 0.00 0.00 0.00 0.00 0.00 0.00 0.00 0.00 0.00 0.00 0.00 0.00 0.00 0.00 0.00 0.00 0.00 0.00 0.00 0.00 0.00 0.00
0.00 0.00 0.00 0.00 0.01 0.01 0.00 0.00 0.00 0.00 0.00 0.00 0.00 0.00 0.00 0.00 0.00 0.00 0.00 0.00 0.00 0.00 0.00 0.00 0.00 0.00 0.00 0.00 0.00 0.00 0.00 0.00 0.00 0.00 0.00 0.00 0.00 0.00 0.00 0.00 0.00 0.00 0.00 0.00
0.00 0.00 0.00 0.00 0.00 0.00 0.00 0.00 0.00 0.00 0.00 0.00 0.00 0.00 0.00 0.00 0.00 0.00 0.00 0.00 0.00 0.00 0.00 0.00 0.00 0.00 0.00 0.00 0.00 0.00 0.00 0.00 0.00 0.00 0.00 0.00 0.00 0.00 0.00 0.00 0.00 0.00 0.00 0.00
0.00 0.00 0.00 0.00 0.00 0.00 0.00 0.00 0.00 0.00 0.00 0.00 0.00 0.00 0.00 0.00 0.00 0.00 0.00 0.00 0.00 0.00 0.00 0.00 0.00 0.00 0.00 0.00 0.00 0.00 0.00 0.00 0.00 0.00 0.00 0.00 0.00 0.00 0.00 0.00 0.00 0.00 0.00 0.00
0.00 0.00 0.00 0.00 0.00 0.00 0.00 0.00 0.00 0.00 0.00 0.00 0.00 0.00 0.00 0.00 0.00 0.00 0.00 0.00 0.00 0.00 0.00 0.00 0.00 0.00 0.00 0.00 0.00 0.00 0.00 0.00 0.00 0.00 0.00 0.00 0.00 0.00 0.00 0.00 0.00 0.00 0.00 0.00
0.00 0.00 0.00 0.00 0.00 0.00 0.00 0.00 0.00 0.00 0.00 0.00 0.00 0.00 0.00 0.00 0.00 0.00 0.00 0.00 0.00 0.00 0.00 0.00 0.00 0.00 0.00 0.00 0.00 0.00 0.00 0.00 0.00 0.00 0.00 0.00 0.00 0.00 0.00 0.00 0.00 0.00 0.00 0.00
0.00 0.00 0.00 0.00 0.00 0.00 0.00 0.00 0.00 0.00 0.00 0.00 0.00 0.00 0.00 0.00 0.00 0.00 0.00 0.00 0.00 0.00 0.00 0.00 0.00 0.00 0.00 0.00 0.00 0.00 0.00 0.00 0.00 0.00 0.00 0.00 0.00 0.00 0.00 0.00 0.00 0.00 0.00 0.00
0.00 0.00 0.00 0.00 0.00 0.00 0.00 0.00 0.00 0.00 0.00 0.00 0.00 0.00 0.00 0.00 0.00 0.00 0.00 0.00 0.00 0.00 0.00 0.00 0.00 0.00 0.00 0.00 0.00 0.00 0.00 0.00 0.00 0.00 0.00 0.00 0.00 0.00 0.00 0.00 0.00 0.00 0.00 0.00
0.00 0.00 0.00 0.00 0.00 0.00 0.00 0.00 0.00 0.00 0.00 0.00 0.00 0.00 0.00 0.00 0.00 0.00 0.00 0.00 0.00 0.00 0.00 0.00 0.00 0.00 0.00 0.00 0.00 0.00 0.00 0.00 0.00 0.00 0.00 0.00 0.00 0.00 0.00 0.00 0.00 0.00 0.00 0.00
0.00 0.00 0.00 0.00 0.00 0.00 0.00 0.00 0.00 0.00 0.00 0.00 0.00 0.00 0.00 0.00 0.00 0.00 0.00 0.00 0.00 0.00 0.00 0.00 0.00 0.00 0.00 0.00 0.00 0.00 0.00 0.00 0.00 0.00 0.00 0.00 0.00 0.00 0.00 0.00 0.00 0.00 0.00 0.00
0.00 0.00 0.00 0.00 0.00 0.00 0.00 0.00 0.00 0.00 0.00 0.00 0.00 0.00 0.00 0.00 0.00 0.00 0.00 0.00 0.00 0.00 0.00 0.00 0.00 0.00 0.00 0.00 0.00 0.00 0.00 0.00 0.00 0.00 0.00 0.00 0.00 0.00 0.00 0.00 0.00 0.00 0.00 0.00
0.00 0.00 0.00 0.00 0.00 0.00 0.00 0.00 0.00 0.00 0.00 0.00 0.00 0.00 0.00 0.00 0.00 0.00 0.00 0.00 0.00 0.00 0.00 0.00 0.00 0.00 0.00 0.00 0.00 0.00 0.00 0.00 0.00 0.00 0.00 0.00 0.00 0.00 0.00 0.00 0.00 0.00 0.00 0.00
0.00 0.00 0.00 0.00 0.00 0.00 0.00 0.00 0.00 0.00 0.00 0.00 0.00 0.00 0.00 0.00 0.00 0.00 0.00 0.00 0.00 0.00 0.00 0.00 0.00 0.00 0.00 0.00 0.00 0.00 0.00 0.00 0.00 0.00 0.00 0.00 0.00 0.00 0.00 0.00 0.00 0.00 0.00 0.00
0.00 0.00 0.00 0.00 0.00 0.00 0.00 0.00 0.00 0.00 0.00 0.00 0.00 0.00 0.00 0.00 0.00 0.00 0.00 0.00 0.00 0.00 0.00 0.00 0.00 0.00 0.00 0.00 0.00 0.00 0.00 0.00 0.00 0.00 0.00 0.00 0.00 0.00 0.00 0.00 0.00 0.00 0.00 0.00
0.00 0.00 0.00 0.00 0.00 0.00 0.00 0.00 0.00 0.00 0.00 0.00 0.00 0.00 0.00 0.00 0.00 0.00 0.00 0.00 0.00 0.00 0.00 0.00 0.00 0.00 0.00 0.00 0.00 0.00 0.00 0.00 0.00 0.00 0.00 0.00 0.00 0.00 0.00 0.00 0.00 0.00 0.00 0.00
MSLP
1013.81 1013.86 1013.37 1013.20 1012.79 1012.38 1011.70 1011.19 1010.32 1009.90 1009.74 1009.85 1009.96 1009.97 1010.13 1010.57 1010.91 1011.02 1011.23 1011.47 1011.61 1011.66 1012.19 1012.32 1012.71 1013.29 1013.71 1014.37 1015.00 1015.85 1016.63 1017.50 1018.17 1018.92 1019.54 1020.17 1020.24 1020.70 1021.03 1021.27 1021.38 1021.59 1021.77 1022.07
1014.05 1013.13 1012.39 1012.48 1012.55 1012.27 1011.63 1011.39 1010.25 1010.13 1009.98 1009.99 1010.16 1010.09 1010.13 1010.41 1010.50 1010.74 1010.84 1011.09 1011.36 1011.61 1011.81 1011.98 1012.31 1012.94 1013.78 1014.33 1014.99 1015.79 1016.65 1017.36 1017.96 1018.42 1019.12 1019.57 1020.01 1020.61 1020.78 1021.10 1021.31 1021.47 1021.62 1021.83
1013.48 1011.96 1011.81 1012.11 1011.99 1011.91 1011.28 1011.35 1010.61 1010.07 1010.16 1010.31 1010.35 1010.39 1010.14 1010.01 1010.24 1010.52 1010.60 1010.83 1011.18 1011.18 1011.39 1012.01 1012.42 1012.90 1013.70 1014.21 1014.97 1015.74 1016.28 1017.25 1017.77 1018.45 1019.07 1019.69 1020.25 1020.69 1020.89 1021.03 1021.11 1021.19 1021.48 1021.79
1013.02 1011.73 1011.62 1011.82 1011.43 1011.35 1010.91 1010.67 1010.83 1010.70 1010.46 1010.59 1010.66 1010.25 1009.94 1009.79 1009.81 1010.03 1010.36 1010.69 1010.95 1011.11 1011.30 1011.72 1012.34 1013.03 1013.55 1014.29 1015.16 1015.82 1016.46 1016.89 1017.58 1018.13 1018.58 1018.90 1019.31 1019.84 1019.97 1020.34 1020.76 1021.04 1021.44 1021.58
1012.23 1011.83 1011.35 1011.18 1010.89 1010.87 1010.71 1010.51 1010.90 1011.03 1011.02 1011.00 1011.03 1010.77 1009.90 1009.97 1009.91 1009.77 1010.09 1010.71 1011.00 1011.28 1011.59 1011.89 1012.36 1012.92 1013.59 1014.39 1015.04 1015.76 1016.29 1016.82 1017.45 1018.02 1018.43 1018.81 1019.31 1019.86 1020.29 1020.58 1020.81 1021.10 1021.46 1021.72
1012.51 1011.79 1011.36 1010.95 1010.98 1010.86 1010.94 1011.16 1011.49 1012.19 1011.70 1011.50 1010.92 1010.84 1009.94 1009.86 1009.69 1010.03 1010.34 1010.76 1011.25 1011.58 1011.92 1012.23 1012.68 1013.20 1013.87 1014.52 1015.03 1015.61 1016.11 1016.84 1017.57 1018.14 1018.70 1019.11 1019.48 1019.88 1020.26 1020.59 1020.81 1021.19 1021.52 1021.72
1012.76 1012.21 1011.81 1011.29 1011.01 1011.24 1011.19 1011.48 1012.28 1012.23 1011.78 1011.44 1011.12 1011.09 1009.98 1009.87 1010.12 1010.46 1010.60 1011.09 1011.64 1012.06 1012.35 1012.76 1013.14 1013.58 1014.11 1014.58 1015.13 1015.66 1016.30 1017.10 1017.76 1018.34 1018.85 1019.25 1019.69 1020.03 1020.19 1020.45 1020.78 1021.19 1021.52 1021.80
1014.25 1013.01 1012.45 1011.81 1011.56 1011.44 1011.55 1011.76 1012.39 1011.86 1011.73 1011.63 1011.47 1010.90 1009.80 1010.16 1010.69 1011.02 1011.27 1011.71 1012.19 1012.48 1012.87 1013.21 1013.56 1013.95 1014.33 1014.76 1015.32 1015.91 1016.61 1017.35 1017.92 1018.45 1018.96 1019.43 1019.89 1020.21 1020.48 1020.79 1021.03 1021.24 1021.41 1021.70
1015.23 1014.23 1012.93 1012.25 1011.77 1011.71 1011.76 1011.70 1011.83 1011.52 1012.04 1011.67 1011.26 1010.55 1009.87 1010.54 1011.16 1011.59 1011.95 1012.34 1012.93 1013.18 1013.50 1013.76 1014.07 1014.39 1014.77 1015.25 1015.85 1016.29 1016.91 1017.58 1018.19 1018.71 1019.28 1019.81 1020.19 1020.47 1020.76 1020.97 1021.14 1021.39 1021.67 1021.93
1014.92 1014.69 1013.31 1012.28 1011.67 1011.48 1011.25 1011.22 1011.59 1011.62 1011.86 1011.61 1011.11 1010.73 1010.18 1010.63 1011.20 1011.81 1012.34 1012.77 1013.38 1013.81 1014.15 1014.45 1014.76 1015.12 1015.53 1015.94 1016.39 1016.89 1017.37 1017.95 1018.64 1019.21 1019.72 1020.15 1020.41 1020.69 1021.06 1021.33 1021.47 1021.63 1021.82 1021.98
1014.43 1014.66 1013.70 1012.48 1012.08 1011.84 1011.42 1011.33 1011.58 1011.75 1012.18 1012.05 1011.50 1010.24 1009.82 1010.30 1010.85 1011.67 1012.45 1013.09 1013.74 1014.30 1014.80 1015.23 1015.64 1015.99 1016.34 1016.69 1017.04 1017.49 1018.01 1018.52 1019.09 1019.59 1020.01 1020.36 1020.80 1021.08 1021.22 1021.35 1021.57 1021.72 1021.90 1022.04
1014.06 1014.15 1013.95 1013.59 1011.88 1011.86 1011.57 1011.27 1011.44 1011.84 1012.68 1012.69 1012.46 1010.45 1009.95 1010.46 1010.91 1011.62 1012.57 1013.43 1014.22 1014.86 1015.47 1015.93 1016.34 1016.58 1016.89 1017.21 1017.65 1018.08 1018.53 1018.91 1019.47 1019.96 1020.28 1020.59 1020.87 1021.13 1021.31 1021.49 1021.64 1021.78 1021.96 1022.20
1014.18 1013.85 1013.81 1013.32 1012.47 1011.89 1011.69 1011.47 1011.69 1011.96 1012.33 1012.55 1012.14 1010.56 1010.20 1010.60 1011.18 1011.81 1012.65 1013.71 1014.59 1015.29 1015.94 1016.46 1016.82 1017.08 1017.41 1017.76 1018.15 1018.54 1018.99 1019.45 1019.87 1020.14 1020.40 1020.70 1020.94 1021.16 1021.39 1021.62 1021.83 1021.92 1021.94 1021.95
1014.22 1014.23 1013.92 1013.35 1012.57 1012.22 1011.93 1011.77 1011.84 1011.98 1012.44 1012.23 1011.61 1010.81 1010.40 1010.93 1011.58 1012.31 1013.04 1013.93 1014.73 1015.41 1016.10 1016.64 1017.11 1017.60 1017.99 1018.32 1018.72 1019.12 1019.47 1019.77 1020.08 1020.31 1020.61 1020.85 1021.05 1021.26 1021.43 1021.61 1021.72 1021.81 1021.89 1021.89
1014.28 1014.55 1014.22 1013.24 1012.43 1012.42 1011.89 1011.63 1011.78 1012.04 1011.97 1011.95 1011.43 1011.44 1010.92 1011.15 1011.56 1012.28 1013.00 1014.07 1014.90 1015.59 1016.23 1016.82 1017.46 1018.00 1018.47 1018.87 1019.23 1019.48 1019.69 1019.94 1020.28 1020.47 1020.64 1020.82 1021.03 1021.25 1021.44 1021.55 1021.60 1021.65 1021.67 1021.65
1014.95 1014.80 1014.53 1013.71 1012.73 1012.24 1012.11 1011.62 1011.60 1011.90 1011.88 1011.72 1011.59 1011.41 1011.00 1011.59 1012.06 1012.72 1013.27 1014.10 1014.81 1015.48 1016.24 1016.99 1017.62 1018.31 1018.75 1019.00 1019.24 1019.58 1019.92 1020.15 1020.27 1020.43 1020.67 1020.94 1021.15 1021.27 1021.29 1021.27 1021.31 1021.42 1021.43 1021.28
1015.55 1015.43 1015.35 1014.24 1013.27 1012.59 1012.15 1011.14 1011.23 1011.38 1011.41 1011.39 1011.65 1011.50 1011.57 1012.26 1012.81 1013.29 1013.70 1014.24 1014.83 1015.51 1016.23 1017.11 1017.78 1018.29 1018.70 1019.04 1019.43 1019.67 1019.90 1020.21 1020.43 1020.64 1020.81 1020.95 1020.98 1020.95 1021.00 1021.10 1021.15 1021.10 1021.02 1020.99
1015.78 1015.90 1016.00 1015.30 1013.75 1012.68 1011.73 1011.34 1011.30 1011.34 1011.28 1011.39 1011.70 1012.04 1012.55 1013.03 1013.71 1014.01 1014.25 1014.48 1014.97 1015.66 1016.56 1017.28 1017.92 1018.54 1019.01 1019.34 1019.59 1019.79 1020.02 1020.27 1020.49 1020.67 1020.69 1020.75 1020.81 1020.81 1020.89 1020.95 1020.93 1020.91 1020.91 1020.64
1015.80 1016.01 1016.38 1016.19 1015.13 1013.06 1011.81 1011.55 1011.59 1011.58 1011.68 1011.88 1012.03 1012.63 1013.26 1013.65 1013.97 1014.57 1014.93 1015.07 1015.51 1016.03 1016.75 1017.50 1018.18 1018.71 1019.15 1019.46 1019.73 1019.92 1020.20 1020.42 1020.50 1020.50 1020.59 1020.68 1020.79 1020.75 1020.75 1020.75 1020.69 1020.64 1020.60 1020.38
1016.09 1015.96 1016.25 1016.39 1015.62 1013.81 1012.23 1011.72 1011.61 1011.63 1011.97 1012.11 1012.30 1013.04 1013.59 1014.08 1014.70 1015.28 1015.54 1015.73 1016.17 1016.74 1017.36 1017.96 1018.55 1019.02 1019.35 1019.73 1019.87 1020.03 1020.21 1020.37 1020.43 1020.54 1020.60 1020.74 1020.76 1020.73 1020.69 1020.63 1020.50 1020.51 1020.48 1020.25
1016.31 1016.47 1016.52 1016.31 1015.45 1013.67 1012.37 1012.01 1011.98 1012.17 1013.00 1012.41 1012.71 1013.31 1013.97 1014.59 1015.15 1015.59 1016.13 1016.64 1016.99 1017.44 1018.00 1018.55 1018.89 1019.19 1019.53 1019.79 1019.96 1020.12 1020.31 1020.34 1020.42 1020.56 1020.64 1020.61 1020.60 1020.62 1020.58 1020.57 1020.51 1020.43 1020.26 1020.07
1015.81 1016.01 1016.25 1016.05 1015.13 1013.66 1012.52 1012.43 1012.46 1012.49 1012.53 1012.67 1013.03 1013.50 1014.31 1014.97 1015.72 1016.27 1016.76 1017.21 1017.67 1018.07 1018.55 1018.91 1019.16 1019.48 1019.81 1019.96 1020.11 1020.20 1020.26 1020.33 1020.42 1020.44 1020.47 1020.56 1020.58 1020.63 1020.52 1020.48 1020.31 1020.18 1020.01 1019.65
1015.84 1015.21 1015.00 1014.86 1013.63 1012.73 1012.49 1012.58 1012.42 1012.56 1012.69 1012.86 1013.33 1013.90 1014.52 1015.29 1016.10 1016.74 1017.29 1017.71 1018.15 1018.45 1018.84 1019.17 1019.36 1019.73 1019.95 1020.03 1020.09 1020.14 1020.26 1020.36 1020.41 1020.43 1020.42 1020.50 1020.47 1020.46 1020.39 1020.27 1020.07 1019.86 1019.63 1019.24
1015.42 1015.10 1014.89 1014.42 1013.37 1012.77 1012.42 1012.27 1012.33 1012.54 1012.88 1013.06 1013.51 1014.09 1014.82 1015.47 1016.35 1016.97 1017.55 1018.05 1018.45 1018.77 1019.02 1019.34 1019.61 1019.76 1019.94 1020.16 1020.17 1020.21 1020.34 1020.39 1020.31 1020.32 1020.36 1020.40 1020.34 1020.08 1020.17 1020.18 1020.00 1019.68 1019.26 1018.78
1015.88 1015.35 1014.70 1014.09 1012.94 1012.35 1012.16 1012.25 1012.45 1012.58 1013.07 1013.58 1014.08 1014.54 1015.10 1015.75 1016.63 1017.13 1017.75 1018.29 1018.64 1018.95 1019.27 1019.54 1019.67 1019.82 1019.93 1020.07 1020.18 1020.32 1020.35 1020.30 1020.29 1020.44 1020.53 1020.45 1020.29 1020.15 1020.12 1020.07 1019.86 1019.35 1018.89 1018.45
1015.15 1014.27 1014.07 1013.26 1012.79 1012.71 1012.44 1012.29 1012.42 1012.74 1013.17 1013.68 1014.40 1015.07 1015.63 1015.97 1016.53 1017.34 1018.05 1018.46 1018.83 1019.14 1019.45 1019.65 1019.83 1019.95 1020.09 1020.25 1020.38 1020.38 1020.42 1020.47 1020.56 1020.56 1020.62 1020.52 1020.27 1020.19 1020.10 1019.85 1019.29 1018.94 1018.49 1017.86
Thickness
5584 5575 5572 5571 5579 5590 5601 5612 5633 5646 5659 5663 5669 5679 5687 5690 5693 5701 5703 5705 5708 5712 5711 5712 5711 5708 5705 5699 5694 5687 5680 5672 5665 5658 5650 5644 5643 5636 5632 5627 5624 5620 5616 5611
5571 5567 5574 5570 5568 5574 5588 5596 5625 5633 5644 5656 5655 5666 5678 5683 5690 5695 5699 5701 5703 5705 5709 5710 5710 5707 5699 5694 5689 5683 5674 5667 5661 5656 5649 5643 5637 5629 5626 5621 5617 5613 5609 5604
5561 5576 5575 5566 5567 5566 5583 5589 5612 5633 5637 5643 5646 5655 5668 5682 5687 5690 5697 5701 5700 5704 5705 5701 5701 5701 5695 5689 5682 5675 5669 5661 5656 5648 5641 5633 5626 5621 5617 5613 5610 5607 5601 5596
5560 5574 5570 5561 5567 5574 5580 5606 5614 5617 5627 5630 5638 5640 5657 5672 5682 5686 5691 5692 5696 5698 5702 5701 5697 5693 5690 5683 5676 5668 5660 5656 5650 5643 5637 5632 5628 5621 5616 5610 5603 5597 5591 5587
5569 5569 5570 5570 5577 5584 5594 5609 5612 5612 5617 5624 5627 5636 5659 5657 5669 5683 5686 5685 5689 5692 5693 5693 5691 5689 5683 5675 5669 5662 5656 5651 5643 5636 5631 5625 5618 5611 5604 5598 5593 5588 5582 5577
5568 5574 5575 5581 5579 5585 5593 5599 5600 5596 5607 5610 5629 5635 5651 5658 5673 5673 5677 5680 5682 5682 5682 5683 5682 5679 5673 5667 5662 5656 5651 5643 5634 5628 5620 5614 5608 5602 5596 5589 5584 5578 5572 5567
5570 5573 5576 5583 5585 5587 5593 5599 5579 5590 5603 5610 5619 5622 5655 5659 5663 5668 5673 5674 5673 5673 5675 5672 5670 5668 5664 5660 5655 5649 5642 5633 5626 5618 5611 5605 5599 5592 5587 5582 5576 5568 5562 5555
5549 5564 5573 5583 5585 5590 5587 5595 5581 5588 5599 5614 5611 5619 5654 5653 5652 5655 5661 5663 5662 5664 5663 5662 5661 5659 5657 5652 5647 5641 5632 5623 5616 5609 5602 5595 5587 5582 5576 5569 5563 5556 5550 5543
5539 5548 5574 5583 5588 5592 5588 5588 5601 5597 5592 5605 5614 5631 5651 5644 5646 5648 5651 5653 5652 5652 5652 5652 5651 5650 5646 5641 5635 5629 5622 5613 5606 5598 5590 5583 5576 5570 5563 5556 5549 5541 5533 5525
5557 5558 5575 5584 5593 5597 5597 5603 5599 5599 5600 5606 5613 5618 5646 5643 5645 5643 5644 5647 5643 5641 5641 5641 5640 5637 5632 5628 5622 5617 5611 5603 5593 5586 5578 5570 5563 5556 5547 5539 5532 5525 5516 5507
5570 5565 5575 5586 5587 5587 5597 5598 5598 5603 5598 5601 5610 5632 5643 5647 5646 5643 5641 5639 5636 5634 5632 5629 5625 5621 5618 5615 5611 5604 5597 5589 5580 5573 5566 5558 5549 5541 5534 5526 5516 5506 5496 5487
5581 5574 5564 5566 5595 5596 5601 5604 5605 5602 5592 5589 5590 5626 5639 5639 5641 5642 5638 5632 5628 5624 5619 5616 5613 5611 5608 5603 5597 5591 5584 5578 5569 5561 5553 5545 5536 5526 5517 5508 5498 5487 5477 5466
5581 5581 5575 5579 5593 5596 5598 5605 5602 5600 5595 5589 5601 5627 5631 5633 5633 5635 5634 5626 5620 5616 5610 5606 5603 5601 5596 5590 5584 5578 5571 5563 5556 5549 5540 5530 5520 5510 5500 5489 5478 5468 5459 5450
5587 5579 5582 5584 5593 5594 5592 5599 5602 5605 5597 5600 5606 5623 5635 5635 5631 5626 5624 5620 5615 5610 5604 5599 5593 5588 5582 5577 5571 5565 5558 5551 5542 5533 5523 5513 5504 5493 5482 5471 5461 5451 5440 5429
5589 5582 5582 5589 5595 5596 5602 5605 5600 5601 5605 5612 5616 5610 5627 5631 5630 5626 5622 5613 5608 5603 5597 5592 5582 5576 5569 5564 5558 5552 5545 5536 5527 5518 5509 5499 5487 5476 5465 5454 5442 5429 5417 5406
5583 5587 5582 5589 5599 5600 5598 5604 5604 5601 5603 5604 5607 5612 5624 5619 5617 5617 5616 5610 5605 5600 5592 5582 5573 5566 5560 5555 5548 5540 5532 5523 5514 5504 5493 5481 5470 5458 5445 5432 5420 5408 5398 5390
5582 5580 5574 5588 5589 5594 5599 5612 5607 5609 5608 5613 5609 5620 5619 5616 5613 5612 5609 5605 5601 5593 5584 5574 5567 5560 5553 5546 5537 5529 5519 5507 5497 5485 5475 5463 5450 5438 5426 5414 5403 5393 5385 5376
5581 5578 5565 5575 5587 5599 5610 5609 5611 5609 5613 5613 5614 5614 5608 5606 5595 5594 5594 5599 5595 5585 5574 5565 5558 5549 5541 5532 5523 5513 5502 5492 5481 5469 5457 5445 5433 5421 5409 5398 5388 5378 5369 5364
5578 5576 5571 5571 5571 5596 5607 5607 5607 5607 5611 5603 5609 5603 5596 5593 5595 5595 5582 5583 5580 5574 5566 5557 5548 5538 5528 5519 5508 5498 5487 5475 5464 5454 5441 5428 5415 5405 5394 5383 5374 5366 5360 5356
5570 5572 5577 5567 5570 5577 5604 5606 5606 5607 5597 5600 5604 5597 5595 5592 5596 5592 5572 5570 5566 5561 5554 5544 5534 5524 5515 5503 5494 5485 5473 5461 5450 5437 5424 5410 5399 5390 5380 5371 5364 5358 5353 5350
5569 5560 5570 5565 5570 5584 5596 5599 5601 5596 5593 5599 5598 5593 5586 5591 5585 5571 5562 5558 5556 5550 5541 5530 5522 5513 5502 5491 5480 5470 5457 5447 5433 5418 5406 5397 5388 5379 5371 5363 5357 5352 5348 5346
5577 5566 5565 5554 5565 5579 5595 5597 5598 5595 5592 5595 5593 5588 5581 5570 5561 5558 5554 5549 5543 5536 5526 5518 5509 5499 5487 5476 5465 5455 5443 5429 5416 5405 5396 5386 5377 5369 5362 5356 5352 5348 5345 5344
5567 5577 5580 5576 5583 5593 5593 5593 5595 5588 5591 5591 5588 5578 5572 5561 5556 5550 5544 5539 5532 5525 5516 5505 5497 5485 5473 5462 5450 5440 5427 5413 5401 5393 5385 5376 5368 5362 5356 5352 5349 5345 5343 5342
5569 5562 5572 5578 5586 5587 5590 5590 5589 5588 5588 5587 5580 5571 5564 5559 5550 5543 5535 5528 5521 5512 5504 5493 5483 5473 5462 5448 5436 5423 5410 5398 5391 5384 5376 5369 5363 5359 5351 5346 5344 5342 5341 5341
5558 5559 5565 5567 5579 5588 5590 5587 5587 5585 5582 5574 5565 5561 5557 5551 5542 5537 5527 5519 5511 5502 5491 5481 5472 5461 5449 5435 5421 5407 5396 5388 5382 5374 5366 5361 5357 5352 5346 5342 5340 5341 5339 5337
5549 5564 5562 5573 5577 5584 5585 5586 5582 5578 5574 5567 5560 5552 5546 5544 5538 5528 5518 5510 5501 5492 5481 5471 5459 5448 5434 5419 5404 5392 5384 5376 5369 5365 5357 5353 5351 5345 5342 5340 5341 5336 5335 5335